Location: Calvatone
(45.1167°N, 10.4333°E)
Time: 09:27:47
(UTC+00:00)

IRIDIUM 104 - Pass Details

Date: 28 January 2023
Orbit: 776 x 779 km, 86.4° (Epoch: 28 March)

Event Time Altitude Azimuth Distance (km) Brightness Sun altitude
Rises 18:26:03 0° 359° (N) 3,276 7.5 -22.3°
Reaches altitude 10° 18:28:27 10° 3° (N) 2,343 6.7 -22.7°
Maximum altitude 18:33:39 63° 84° (E) 867 4.2 -23.6°
Enters shadow 18:34:19 58° 122° (ESE) 911 4.3 -23.7°
Exits shadow 18:39:12 - 167° (SSE) 2,471 6.8 -24.6°
Sets 18:41:11 0° 170° (S) 3,248 7.5 -25.0°
